TimeHST,TemperatureF,Dew PointF,Humidity,Sea Level PressureIn,VisibilityMPH,Wind Direction,Wind SpeedMPH,Gust SpeedMPH,PrecipitationIn,Events,Conditions,WindDirDegrees,DateUTC
12:53 AM,78.1,68.0,71,29.88,10.0,East,4.6,-,N/A,,Clear,90,2013-11-09 10:53:00
1:53 AM,79.0,55.9,45,29.86,10.0,East,6.9,-,N/A,,Clear,80,2013-11-09 11:53:00
2:53 AM,78.1,63.0,60,29.85,10.0,East,4.6,-,N/A,,Clear,100,2013-11-09 12:53:00
3:53 AM,77.0,66.0,69,29.85,10.0,Calm,Calm,-,N/A,,Mostly Cloudy,0,2013-11-09 13:53:00
4:10 AM,77.0,66.2,69,29.85,10.0,Calm,Calm,-,N/A,,Overcast,0,2013-11-09 14:10:00
4:33 AM,77.0,64.4,65,29.85,10.0,NNE,3.5,-,N/A,,Overcast,20,2013-11-09 14:33:00
4:53 AM,77.0,64.9,66,29.85,10.0,NNE,3.5,-,N/A,,Scattered Clouds,20,2013-11-09 14:53:00
5:53 AM,75.9,63.0,64,29.87,10.0,NE,4.6,-,N/A,,Clear,50,2013-11-09 15:53:00
6:53 AM,75.0,60.1,60,29.88,10.0,NE,5.8,-,N/A,,Partly Cloudy,40,2013-11-09 16:53:00
7:53 AM,79.0,59.0,50,29.89,10.0,North,3.5,-,N/A,,Clear,350,2013-11-09 17:53:00
8:53 AM,82.0,63.0,52,29.90,10.0,North,10.4,-,N/A,,Clear,360,2013-11-09 18:53:00
9:53 AM,84.0,61.0,46,29.90,10.0,West,5.8,-,N/A,,Clear,280,2013-11-09 19:53:00
10:53 AM,82.9,61.0,47,29.89,10.0,SW,3.5,-,N/A,,Clear,230,2013-11-09 20:53:00
11:53 AM,82.9,64.9,54,29.86,10.0,SSW,6.9,-,N/A,,Partly Cloudy,200,2013-11-09 21:53:00
12:53 PM,82.9,66.0,56,29.83,10.0,SSW,8.1,-,N/A,,Clear,200,2013-11-09 22:53:00
1:53 PM,82.9,66.9,58,29.81,10.0,WSW,9.2,-,N/A,,Clear,240,2013-11-09 23:53:00
2:53 PM,82.0,66.9,60,29.81,10.0,SSW,10.4,-,N/A,,Scattered Clouds,210,2013-11-10 00:53:00
3:53 PM,82.0,66.9,60,29.81,10.0,SSW,8.1,-,N/A,,Clear,200,2013-11-10 01:53:00
4:53 PM,81.0,68.0,65,29.80,10.0,South,9.2,-,N/A,,Clear,170,2013-11-10 02:53:00
5:53 PM,80.1,68.0,67,29.82,10.0,South,9.2,-,N/A,,Partly Cloudy,170,2013-11-10 03:53:00
6:53 PM,80.1,69.1,69,29.83,10.0,South,9.2,-,N/A,,Partly Cloudy,170,2013-11-10 04:53:00
7:53 PM,78.1,69.1,74,29.86,10.0,ESE,6.9,-,N/A,,Mostly Cloudy,120,2013-11-10 05:53:00
8:53 PM,78.1,66.0,66,29.86,10.0,East,3.5,-,N/A,,Mostly Cloudy,100,2013-11-10 06:53:00
9:53 PM,77.0,66.0,69,29.86,10.0,ESE,6.9,-,N/A,,Clear,110,2013-11-10 07:53:00
10:53 PM,75.9,66.0,71,29.86,10.0,East,3.5,-,N/A,,Clear,80,2013-11-10 08:53:00
11:53 PM,75.9,64.9,69,29.86,10.0,East,3.5,-,N/A,,Mostly Cloudy,80,2013-11-10 09:53:00